Mobile Downtown, AL

10:28 AM CDT on April 20, 2018 (GMT -0500)
Mobile Downtown

Weather History for KBFM - February, 2014

Change the Weather History Date:

Thursday, February 27, 2014

  Actual Average Record
Temperature  
Mean Temperature 44 °F -  
Max Temperature 55 °F 62 °F 79 °F (2007)
Min Temperature 32 °F 46 °F 28 °F (2002)
Degree Days  
Heating Degree Days 22    
Moisture  
Dew Point 23 °F    
Average Humidity 52    
Maximum Humidity 89    
Minimum Humidity 21    
Precipitation  
Precipitation 0.00 in - - ()
Sea Level Pressure  
Sea Level Pressure 30.06 in    
Wind  
Wind Speed 11 mph (NNW)    
Max Wind Speed 17 mph    
Max Gust Speed 20 mph    
Visibility 10 miles    
Events      
Averages and records for this station are not official NWS values.
T = Trace of Precipitation, MM = Missing Value Source: NWS Daily Summary

Daily Weather History Graph

Daily Weather History Graph

Search for Another Location

Airport or City:

Astronomy

Feb. 27, 2014 Rise Set
Actual Time 6:20 AM CST 5:49 PM CST
Civil Twilight 5:56 AM CST 6:13 PM CST
Nautical Twilight 5:28 AM CST 6:41 PM CST
Astronomical Twilight 5:00 AM CST 7:09 PM CST
Moon 4:47 AM CST (2/27) 4:18 PM CST (2/27)
Length of Visible Light 12h 17m
Length of Day
11h 28m
Waning Crescent, 4% of the Moon is Illuminated
Feb 27
Waning Crescent
Mar 1
New
Mar 8
First Quarter
Mar 16
Full
Mar 23
Last Quarter

Hourly Weather History & Observations

Time (CST) Temp. Windchill Dew Point Humidity Pressure Visibility Wind Dir Wind Speed Gust Speed Precip Events Conditions
12:53 AM 39.0 °F 32.3 °F 28.0 °F 65% 30.05 in 10.0 mi NNW 10.4 mph - N/A   Clear
1:53 AM 39.0 °F 30.6 °F 27.0 °F 62% 30.04 in 10.0 mi North 15.0 mph - N/A   Clear
2:53 AM 37.9 °F 28.9 °F 26.1 °F 62% 30.04 in 10.0 mi NNW 16.1 mph - N/A   Clear
3:17 AM 37.0 °F 27.7 °F 25.0 °F 62% 30.05 in 10.0 mi North 16.1 mph - N/A   Clear
3:53 AM 37.0 °F 27.7 °F 23.0 °F 57% 30.05 in 10.0 mi North 16.1 mph - N/A   Clear
4:53 AM 35.1 °F 24.8 °F 21.0 °F 57% 30.07 in 10.0 mi North 17.3 mph - N/A   Clear
5:53 AM 32.0 °F 22.5 °F 18.0 °F 56% 30.08 in 10.0 mi North 12.7 mph - N/A   Clear
6:53 AM 32.0 °F 23.0 °F 19.0 °F 59% 30.10 in 10.0 mi NNW 11.5 mph - N/A   Clear
7:53 AM 35.1 °F 26.9 °F 19.9 °F 54% 30.11 in 10.0 mi North 11.5 mph - N/A   Clear
8:53 AM 39.0 °F 32.3 °F 21.0 °F 49% 30.13 in 10.0 mi North 10.4 mph 19.6 mph N/A   Clear
9:53 AM 42.1 °F 36.1 °F 17.1 °F 37% 30.12 in 10.0 mi North 10.4 mph - N/A   Clear
10:53 AM 45.0 °F 40.1 °F 15.1 °F 30% 30.12 in 10.0 mi North 9.2 mph 19.6 mph N/A   Clear
11:53 AM 48.0 °F - 14.0 °F 26% 30.10 in 10.0 mi North 12.7 mph - N/A   Clear
12:53 PM 51.1 °F - 16.0 °F 25% 30.06 in 10.0 mi NNW 10.4 mph - N/A   Clear
1:53 PM 52.0 °F - 21.0 °F 30% 30.04 in 10.0 mi NE 10.4 mph 19.6 mph N/A   Clear
2:53 PM 53.1 °F - 21.9 °F 30% 30.02 in 10.0 mi ENE 9.2 mph - N/A   Clear
3:53 PM 55.9 °F - 16.0 °F 21% 30.00 in 10.0 mi NNW 5.8 mph - N/A   Clear
4:53 PM 54.0 °F - 16.0 °F 22% 30.01 in 10.0 mi NW 9.2 mph - N/A   Clear
5:53 PM 48.0 °F - 19.9 °F 33% 30.02 in 10.0 mi WNW 5.8 mph - N/A   Clear
6:53 PM 41.0 °F 38.0 °F 25.0 °F 53% 30.04 in 10.0 mi NW 4.6 mph - N/A   Clear
7:53 PM 39.9 °F 36.7 °F 30.0 °F 68% 30.06 in 10.0 mi SW 4.6 mph - N/A   Clear
8:53 PM 36.0 °F - 30.9 °F 82% 30.07 in 10.0 mi Calm Calm - N/A   Clear
9:53 PM 35.1 °F - 32.0 °F 89% 30.08 in 10.0 mi Calm Calm - N/A   Clear
10:53 PM 35.1 °F - 32.0 °F 89% 30.07 in 10.0 mi Calm Calm - N/A   Clear
11:53 PM 33.1 °F - 28.9 °F 85% 30.07 in 10.0 mi Calm Calm - N/A   Clear